Regional Weather Roundup
Issued by NWS

Home | Current Version | Previous Version | Graphics & Text | Print | Product List | Glossary On
Versions: 1 2 3 4 5 6 7 8 9 10 11 12 13 14 15 16 17 18 19 20 21 22 23 24 25 26 27 28 29 30 31 32 33 34 35 36 37 38 39 40 41 42 43 44 45 46 47 48 49 50
000
ASUS45 KTFX 160104
RWRMT
MONTANA HOURLY WEATHER ROUNDUP
NATIONAL WEATHER SERVICE GREAT FALLS MT
704 PM MDT TUE APR 15 2014

NOTE: "FAIR" INDICATES FEW OR NO CLOUDS BELOW 12000 FEET WITH NO
SIGNIFICANT WEATHER AND/OR OBSTRUCTIONS TO VISIBILITY.

* THESE STATIONS ARE NOT UNDER NWS QUALITY CONTROL. THEY DO NOT
   REPORT WEATHER SUCH AS PRECIPITATION OR FOG.

MTZ001>007-043-160200-
WEST OF THE DIVIDE
CITY           SKY/WX    TMP DP  RH WIND       PRES   REMARKS
KALISPELL      CLOUDY    43  37  79 SE7       29.84R
MISSOULA       CLOUDY    46  28  50 NW14      29.90S
BUTTE          MOCLDY    39  18  43 NW21G29   29.83R WCI  29
MULLAN PASS    LGT SNOW  28  28 100 VRB6      29.88S VSB 1 3/4 WCI  21
* ESSEX        N/A       39  36  89 SW1        N/A
* LINCOLN      N/A       38  31  76 S10G21     N/A   WCI  31
* LOOKOUT PASS N/A       33  31  92 VRB8       N/A   WCI  26
* POLSON       N/A       45  30  56 SW2G8      N/A
* SEELEY LAKE  N/A       39  31  73 W6G15      N/A   WCI  35
* THOMP F APT  MOCLDY    43  10  26 N13G36     N/A
* YAAK HILL    N/A       44  32  63 SE2        N/A
$$

MTZ008-052>055-160200-
SOUTHWEST MONTANA
CITY           SKY/WX    TMP DP  RH WIND       PRES   REMARKS
BOZEMAN        CLOUDY    43  27  53 W14G32    29.79R
DILLON         MOCLDY    43  14  31 NW22      29.82R
W YELLOWSTONE  N/A       34  31  89 N3G15      N/A
* THREE FORKS  MOCLDY    46  28  50 NW11G18    N/A
* BOULDER HILL N/A       38  18  44 N11G22     N/A   WCI  31
* MONIDA PASS  N/A       38   9  30 NW33G45    N/A   WCI  25
* RAYNOLDS PAS N/A       32  32 100 N14G19     N/A   WCI  22
* WHITEHALL    N/A       50  19  29 NW15G31    N/A
* WISE RIVER   N/A       40  22  49 W17G35     N/A   WCI  31
$$

MTZ009>010-012-014-046-048-049-054-160200-
EAST SLOPES AND CENTRAL MONTANA
CITY           SKY/WX    TMP DP  RH WIND       PRES   REMARKS
CUT BANK       CLOUDY    37  34  89 W18       29.78R WCI  27
GREAT FALLS    LGT RAIN  39  34  82 W10       29.77R WCI  32
HELENA         CLOUDY    43  28  56 W16G30    29.81R
MALMSTROM AFB  LGT RAIN  43  32  65 W10G21    29.75R
* CONRAD       CLOUDY    39  37  93 W15G22     N/A   WCI  31
* DEARBORN     N/A       43  34  71 VRB6       N/A
* EAST GLACIER N/A       37  31  79 E6         N/A   WCI  32
* MONARCH      N/A       32  28  85 NW23G32    N/A   WCI  19
* PENDROY      N/A       40  32  73 NW22G28    N/A   WCI  30
* ROGERS PASS  N/A       35  26  70 SE4G14     N/A
* SAINT MARY   N/A       35  33  92 N4         N/A
* SWEET GRASS  N/A       39  36  89 NW14G20    N/A   WCI  31
$$

MTZ011-013-016-021-035-040-045-047-050-051-160200-
NORTH CENTRAL MONTANA
CITY           SKY/WX    TMP DP  RH WIND       PRES   REMARKS
HAVRE          CLOUDY    52  21  30 N15G28    29.68R
LEWISTOWN      CLOUDY    41  30  65 W17G25    29.70R
* CHESTER      N/A       51  15  24 N11G17     N/A
* DENTON       N/A       45  32  60 W26G32     N/A
* GEYSER       N/A       38  33  82 W27G35     N/A   WCI  26
* JUDITH GAP   N/A       41  29  62 NW20G29    N/A
* LOMA         N/A       53  19  26 NW12G24    N/A
$$

MTZ017>020-022>027-061-062-160200-
NORTHEAST MONTANA
CITY           SKY/WX    TMP DP  RH WIND       PRES   REMARKS
GLASGOW        CLOUDY    50  19  29 NE20G26   29.56R
GLENDIVE       CLOUDY    57  23  27 W18G24    29.55S
JORDAN         CLOUDY    55  21  27 NW18G24   29.57R
SIDNEY         CLOUDY    52  25  35 NE12      29.59R
WOLF POINT     CLOUDY    48  19  32 E17       29.59R
* BEAVER HILL  N/A       56  19  23 W10G18     N/A
* CIRCLE       N/A       57  24  28 W17        N/A
* LINDSAY DVD  N/A       53  23  31 W9G22      N/A
* NAVAJO       N/A       39  19  45 E12G19     N/A   WCI  32
* SACO         N/A       54  19  25 N14G24     N/A
$$

MTZ028>042-056>058-160200-
SOUTHCENTRAL AND SOUTHEAST MONTANA
CITY           SKY/WX    TMP DP  RH WIND       PRES   REMARKS
BAKER          CLOUDY    54  21  27 W9G26     29.57R
BILLINGS       CLOUDY    45  36  71 W15G25    29.69R
LIVINGSTON     CLOUDY    41 N/A N/A W20       29.76R
MILES CITY     CLOUDY    57  25  29 NW12      29.56R
* LAUREL APT   CLOUDY    43  32  65 SW8        N/A
* ROUNDUP APT  CLOUDY    46  28  50 W26G32     N/A
* HYSHAM       N/A       43  37  79 NW4G11     N/A
* REED POINT   N/A       45  33  63 W17G24     N/A
* ROSCOE HILL  N/A       36  27  70 W11G24     N/A   WCI  28
$$

REGIONAL REPORTS...DAKOTAS
CITY           SKY/WX    TMP DP  RH WIND       PRES   REMARKS
WILLISTON      CLOUDY    43  21  42 E26       29.64R
DICKINSON      CLOUDY    46  23  40 E14       29.58R
CROSBY         FAIR      32  21  64 E24G31    29.72R WCI  19
TIOGA          CLOUDY    36  18  48 E22G28    29.72R WCI  25
WATFORD CITY   CLEAR     39  19  45 E21G32    29.60R WCI  29
BISMARCK       MOCLDY    39  18  43 E23G32    29.72R WCI  28
GRAND FORKS    CLOUDY    30  12  47 SE9       29.96S WCI  22
FARGO          CLOUDY    34  10  37 SE12      29.98S WCI  25
BUFFALO SD     CLOUDY    55  25  31 NW28G39   29.49R
RAPID CITY     CLOUDY    57  27  32 N16       29.53S
$$

REGIONAL REPORTS...WYOMING/IDAHO/WASHINGTON
CITY           SKY/WX    TMP DP  RH WIND       PRES   REMARKS
GILLETTE       CLOUDY    48  30  50 NW17G23   29.59F
SHERIDAN       CLOUDY    46  36  68 N18G23    29.64R
CODY           CLOUDY    39  30  70 N21G29    29.69R WCI  29
YELLOWSTONE LA CLOUDY    30  25  82 VRB5      29.77R WCI  25
SALMON         PTCLDY    46  21  37 SW6       29.91F
MULLAN PASS    LGT SNOW  28  28 100 VRB6      29.88S VSB 1 3/4 WCI  21
SPOKANE        CLOUDY    55  18  23 NW13G23   29.90S
$$

REGIONAL REPORTS...ALBERTA
CITY           SKY/WX    TMP DP  RH WIND       PRES   REMARKS
EDMONTON       LGT SNOW  32  28  85 N14G20    29.91R VSB 2 1/2 WCI  22

$$




USA.gov is the U.S. government's official web portal to all federal, state and local government web resources and services.